Temp
82 84 86 85 84 84 79 81 76 81 83 83 85 87 88 88 87 86 86 87 83 82 82 82 82 82 85 83 83 81 82 82 80 81 81 81 80 84 84 84 84 84 84 85
75 83 84 80 84 85 85 83 82 84 82 94 94 93 87 85 85 84 84 81 79 79 80 81 82 79 82 80 81 81 78 76 75 75 75 76 77 77 80 82 82 83 82 83
67 78 78 71 80 83 84 87 85 78 85 92 91 87 86 84 85 85 85 79 78 78 77 77 76 76 77 80 81 79 78 75 75 76 75 75 75 77 76 79 80 80 80 82
69 72 59 78 89 88 85 87 89 88 89 91 91 93 91 89 87 86 86 80 79 79 79 80 80 80 80 81 80 79 78 78 78 78 77 78 76 77 76 75 77 79 81 83
64 66 72 78 83 83 81 80 90 87 89 91 92 92 89 89 89 89 88 81 81 80 82 80 81 82 79 81 79 79 77 76 77 77 76 77 76 76 76 76 76 79 80 80
66 60 58 75 86 91 89 73 90 90 88 89 89 79 84 85 88 88 83 80 80 82 82 79 78 81 81 79 78 78 78 76 77 76 76 76 76 75 75 75 76 79 79 81
65 62 69 81 86 89 65 70 87 91 90 89 82 86 88 88 86 82 80 80 78 79 77 78 81 80 78 77 76 78 79 80 79 77 77 77 76 77 77 77 76 77 78 80
64 59 58 85 83 69 72 80 85 90 90 88 85 83 85 84 81 79 77 77 78 74 74 77 79 78 75 74 77 78 78 78 78 78 78 77 75 76 76 76 75 74 75 75
58 61 73 79 76 82 85 82 81 85 89 88 84 79 80 79 79 78 76 75 74 73 73 77 77 76 73 73 75 76 76 75 76 77 78 76 73 74 76 76 76 74 70 71
56 64 70 74 73 75 83 84 84 82 87 88 84 85 80 79 78 77 75 72 73 72 73 73 74 74 74 74 76 76 75 75 75 76 74 76 77 75 75 74 71 72 73 67
54 62 66 71 76 77 66 73 84 82 84 87 87 82 76 74 74 74 74 70 72 70 72 72 73 74 75 75 76 75 76 76 76 79 77 77 76 75 75 73 66 68 69 68
50 65 65 68 71 74 73 68 75 84 83 85 83 71 66 67 70 73 71 69 71 73 71 72 73 72 73 75 75 74 75 76 76 78 79 78 76 76 56 56 51 48 48 52
60 61 63 69 69 71 68 68 66 78 82 76 76 74 72 71 70 65 69 64 72 73 74 73 72 72 73 74 75 74 73 74 76 74 76 75 75 74 71 69 50 49 48 48
67 67 66 68 66 70 67 62 61 75 77 74 72 70 69 68 68 67 66 68 72 71 72 73 72 71 74 74 74 74 75 63 74 73 75 75 73 73 72 68 64 65 56 52
68 68 71 72 68 67 67 60 55 65 68 68 70 70 69 67 66 62 63 64 67 70 69 68 69 70 73 73 73 74 74 73 72 73 73 69 73 73 73 67 64 62 63 58
67 65 69 70 72 72 63 57 54 64 67 69 69 70 69 69 67 67 65 64 62 62 66 66 67 70 72 71 70 74 73 66 68 72 73 71 71 69 65 62 60 59 60 58
68 67 69 69 72 72 63 60 64 68 67 67 65 69 71 69 68 67 68 67 66 65 68 68 67 71 70 70 69 73 74 73 67 73 71 69 65 62 62 60 57 57 57 55
72 72 73 72 65 64 64 66 62 68 67 67 67 67 67 69 68 68 70 69 66 66 69 69 69 68 67 67 67 72 72 70 69 67 65 62 60 60 58 56 56 56 56 55
72 68 67 68 66 61 59 59 73 72 73 71 67 69 69 70 69 69 68 65 63 62 64 68 65 68 67 66 65 72 69 68 66 63 60 56 57 55 54 53 53 53 53 52
69 66 63 64 62 61 59 60 71 71 71 72 72 70 69 67 68 67 65 64 65 66 68 69 69 68 67 68 68 70 67 64 60 58 54 52 51 50 50 48 49 49 49 49
59 58 58 57 57 59 60 68 70 68 70 71 68 68 66 67 67 67 64 64 65 66 70 65 69 70 70 69 71 70 66 60 58 55 52 50 49 48 47 47 47 46 46 46
60 55 53 56 56 57 67 71 70 69 69 69 70 69 65 64 65 67 67 66 69 62 69 71 69 63 69 63 70 68 65 61 58 55 54 51 49 47 46 46 45 45 45 45
65 58 55 57 57 64 67 71 71 71 69 69 70 69 67 69 68 65 62 67 70 65 70 70 61 60 61 67 70 67 66 64 61 57 55 52 49 47 46 45 45 45 44 44
59 66 66 68 69 66 64 67 70 69 69 70 71 71 66 66 67 69 66 62 59 63 70 64 62 57 54 71 71 69 67 65 63 60 57 49 52 49 47 46 44 44 44 44
65 65 67 65 63 61 64 64 65 68 69 71 70 72 68 68 67 67 69 70 58 66 70 56 55 55 69 72 71 70 66 64 64 62 60 58 55 50 48 46 45 45 45 45
62 60 59 61 61 62 69 70 66 71 71 70 67 64 66 70 67 71 72 67 71 66 71 68 69 68 72 73 72 71 68 63 64 62 60 58 57 54 49 46 45 45 44 45
63 55 62 64 63 64 64 61 60 55 61 63 63 67 66 63 66 64 66 72 72 72 71 73 73 69 74 72 72 69 70 69 63 64 62 59 58 56 53 50 46 46 45 45
MSLP
997.09 996.41 995.68 995.27 995.19 995.88 996.47 996.58 995.97 995.58 995.40 996.26 997.09 997.91 999.31 1000.59 1001.76 1002.53 1003.18 1003.80 1004.92 1005.48 1006.05 1006.77 1007.31 1007.70 1007.93 1008.38 1008.89 1009.13 1008.98 1009.40 1009.79 1010.16 1010.61 1010.75 1010.79 1011.15 1011.26 1011.01 1010.86 1010.76 1010.53 1010.16
997.63 997.02 996.34 995.79 995.32 995.14 995.21 995.81 996.07 995.90 995.42 995.68 996.31 997.60 999.34 1000.80 1002.07 1002.98 1003.71 1005.00 1005.92 1006.57 1007.13 1007.64 1008.11 1008.64 1008.90 1009.43 1009.86 1010.23 1010.48 1010.65 1010.77 1010.82 1011.20 1010.51 1010.67 1010.20 1010.96 1010.97 1010.85 1010.96 1010.72 1010.50
997.76 997.97 997.36 995.77 995.54 995.23 995.14 994.99 995.31 995.37 995.80 995.91 996.50 997.53 998.91 1000.59 1001.92 1002.95 1004.01 1005.65 1006.53 1007.38 1008.00 1008.61 1009.11 1009.50 1009.75 1010.08 1010.51 1010.88 1011.14 1011.49 1011.53 1011.47 1011.26 1011.05 1011.25 1011.14 1011.00 1010.58 1010.64 1010.65 1010.43 1010.14
998.32 998.42 996.42 995.64 995.74 995.39 995.06 994.90 994.93 995.29 995.55 996.06 996.67 997.15 998.54 1000.06 1001.47 1002.62 1003.92 1005.73 1006.87 1007.73 1008.42 1009.02 1009.35 1009.73 1010.07 1010.42 1010.78 1011.01 1011.22 1011.39 1011.44 1011.37 1011.49 1011.31 1010.94 1010.84 1010.64 1010.34 1010.51 1010.32 1009.92 1009.43
998.71 997.95 996.67 996.05 995.74 995.33 994.84 994.69 994.73 995.02 995.48 995.88 996.88 997.90 998.92 1000.16 1001.58 1002.65 1003.86 1005.28 1006.73 1007.61 1008.31 1008.99 1009.52 1009.97 1010.39 1010.50 1010.89 1011.14 1011.43 1011.61 1011.65 1011.66 1011.42 1011.19 1011.11 1010.77 1010.59 1010.63 1010.43 1009.92 1009.39 1009.36
999.66 998.45 996.67 996.53 996.05 995.67 995.29 994.49 994.79 994.70 995.22 995.64 996.61 997.62 998.90 1000.27 1001.72 1002.97 1004.90 1006.32 1007.08 1007.78 1008.61 1009.34 1009.94 1010.19 1010.16 1010.59 1010.97 1011.12 1011.32 1011.59 1011.51 1011.56 1011.57 1011.78 1011.64 1011.28 1010.86 1010.69 1010.36 1009.77 1009.15 1008.75
1000.22 999.09 997.66 997.52 996.90 996.43 996.53 996.52 995.22 994.86 995.21 995.64 996.70 997.82 999.08 1000.49 1002.15 1003.83 1005.28 1006.40 1007.56 1008.39 1008.85 1009.48 1009.89 1010.32 1010.76 1011.15 1011.31 1011.38 1011.44 1011.42 1011.48 1011.62 1011.67 1011.73 1011.68 1011.36 1011.02 1010.60 1010.13 1009.29 1009.03 1008.63
1001.30 1000.42 998.47 998.60 997.85 997.46 998.14 997.58 996.48 995.46 995.44 995.97 997.15 998.62 999.89 1001.55 1003.28 1004.77 1006.03 1007.16 1008.05 1008.89 1009.56 1010.01 1010.53 1010.82 1011.23 1011.62 1011.76 1011.72 1011.71 1011.71 1011.75 1011.68 1011.62 1011.64 1011.53 1011.35 1010.96 1010.44 1010.23 1009.89 1009.47 1009.09
1003.37 1001.92 1000.42 999.68 999.75 998.84 997.94 998.88 998.20 996.91 996.45 996.06 997.49 999.43 1001.18 1002.53 1004.03 1005.29 1006.48 1007.49 1008.60 1009.44 1010.11 1010.57 1011.07 1011.42 1011.82 1012.08 1012.17 1012.12 1011.98 1011.93 1011.91 1011.69 1011.47 1011.47 1011.51 1011.06 1010.50 1010.19 1010.06 1010.20 1010.33 1010.22
1004.30 1003.41 1002.11 1001.19 1001.59 1000.80 999.76 999.09 999.00 998.39 997.81 997.32 998.07 999.64 1001.32 1002.57 1004.37 1005.94 1006.75 1007.55 1008.65 1009.70 1010.51 1011.11 1011.59 1011.85 1012.12 1012.31 1012.24 1012.09 1011.95 1011.96 1011.81 1011.39 1011.20 1011.22 1011.14 1011.26 1011.14 1011.21 1011.45 1011.40 1011.02 1011.32
1005.13 1004.01 1003.16 1002.27 1001.91 1001.59 1002.50 1002.11 999.86 999.20 997.79 997.92 998.32 999.91 1001.74 1003.78 1004.89 1006.90 1008.21 1008.74 1008.94 1009.55 1010.65 1011.38 1011.93 1012.13 1012.23 1012.32 1012.19 1012.07 1011.90 1011.83 1011.74 1011.22 1011.26 1011.08 1011.17 1011.42 1011.61 1011.98 1012.41 1012.54 1012.52 1012.35
1004.16 1004.41 1003.32 1002.82 1002.61 1002.48 1003.27 1003.93 1001.17 1000.08 999.55 997.23 997.86 1001.41 1003.53 1006.56 1005.88 1006.42 1007.95 1009.31 1009.78 1009.50 1010.75 1011.53 1012.11 1012.40 1012.56 1012.55 1012.43 1012.28 1011.95 1012.14 1011.92 1011.27 1011.04 1011.24 1011.32 1011.45 1012.09 1012.23 1012.53 1012.79 1013.15 1013.45
1004.79 1005.28 1004.38 1003.99 1003.79 1004.31 1004.33 1003.96 1002.94 1001.45 1000.63 1000.86 1001.52 1002.66 1005.00 1006.50 1006.83 1007.62 1008.84 1010.21 1009.30 1009.36 1011.30 1011.40 1012.07 1012.51 1012.67 1012.93 1012.72 1012.59 1012.48 1012.46 1011.97 1011.69 1011.44 1011.45 1011.37 1011.67 1012.06 1012.32 1012.73 1012.93 1013.07 1013.14
1003.78 1003.98 1003.52 1003.64 1003.71 1004.04 1004.46 1003.90 1003.36 1001.97 999.15 1000.25 1002.66 1004.10 1004.89 1006.15 1007.54 1008.53 1009.31 1009.47 1010.45 1010.89 1011.13 1011.53 1012.25 1012.58 1012.91 1013.39 1013.01 1012.71 1012.45 1012.40 1012.16 1012.22 1012.04 1011.79 1011.91 1011.95 1012.20 1012.83 1013.25 1013.30 1013.27 1013.33
1003.15 1003.50 1003.27 1003.23 1003.49 1003.69 1003.70 1005.08 1005.19 1003.30 999.03 1001.40 1004.00 1004.88 1005.68 1006.73 1007.67 1008.62 1009.30 1010.39 1011.39 1011.50 1012.04 1011.24 1012.93 1013.48 1013.46 1013.60 1013.26 1012.57 1012.35 1012.51 1012.86 1012.65 1012.59 1012.51 1012.20 1012.24 1012.38 1013.24 1013.85 1013.86 1013.60 1013.44
1003.05 1003.14 1003.00 1002.67 1002.49 1002.62 1003.73 1005.25 1006.67 1003.93 1003.80 1004.33 1004.94 1006.07 1006.76 1007.51 1008.44 1009.11 1009.91 1011.10 1011.50 1011.85 1012.25 1012.54 1013.56 1013.83 1013.85 1014.07 1013.13 1011.83 1012.17 1012.89 1012.90 1012.70 1012.83 1012.85 1012.88 1012.97 1013.50 1014.13 1014.46 1014.37 1014.06 1014.07
1002.43 1002.52 1002.67 1002.46 1002.25 1002.29 1003.19 1003.72 1004.26 1003.11 1004.44 1003.92 1005.42 1006.08 1007.25 1008.20 1009.03 1009.59 1010.16 1010.81 1011.15 1012.13 1012.53 1013.10 1013.48 1013.83 1014.11 1013.97 1012.99 1012.43 1012.47 1012.91 1012.81 1013.08 1013.36 1013.81 1014.16 1014.48 1014.57 1014.78 1014.86 1014.74 1014.63 1014.63
1002.59 1002.70 1002.77 1002.79 1003.14 1003.61 1003.52 1003.81 1003.75 1002.74 1003.86 1004.86 1005.77 1006.22 1007.27 1008.10 1008.80 1009.35 1009.80 1010.75 1011.53 1012.13 1012.58 1012.90 1013.39 1014.02 1014.20 1013.86 1013.74 1012.90 1013.01 1013.46 1013.77 1014.09 1014.57 1015.16 1015.50 1015.41 1015.44 1015.40 1015.26 1015.15 1014.93 1014.72
1002.64 1002.83 1003.17 1003.37 1003.53 1003.97 1003.71 1003.97 1003.76 1003.32 1004.89 1004.97 1005.88 1006.58 1007.37 1007.79 1008.72 1009.27 1010.03 1010.93 1011.71 1012.32 1012.86 1013.34 1013.94 1014.05 1014.15 1014.35 1014.17 1013.52 1014.09 1014.27 1014.72 1015.43 1015.87 1016.19 1016.18 1016.16 1016.09 1016.07 1015.94 1015.75 1015.49 1015.21
1003.29 1003.87 1004.18 1004.36 1004.61 1004.47 1004.06 1004.13 1003.86 1003.93 1004.63 1005.46 1006.19 1006.82 1007.37 1008.18 1008.83 1009.60 1010.43 1011.09 1011.71 1012.29 1013.17 1013.73 1013.89 1014.08 1014.50 1014.29 1014.09 1014.38 1014.82 1015.44 1016.22 1016.33 1016.82 1017.14 1017.15 1017.04 1016.82 1016.65 1016.52 1016.31 1016.05 1015.77
1004.20 1004.69 1004.54 1005.08 1005.20 1005.38 1005.03 1005.30 1005.41 1005.79 1006.12 1006.54 1006.69 1007.04 1007.76 1008.50 1009.09 1009.80 1010.72 1011.31 1012.02 1012.57 1012.86 1013.49 1013.65 1013.92 1014.29 1014.29 1014.20 1014.63 1015.51 1016.47 1016.72 1017.09 1017.59 1017.55 1017.37 1017.35 1017.26 1017.23 1017.11 1016.84 1016.48 1016.23
1004.69 1005.29 1005.28 1005.71 1005.70 1005.46 1005.56 1005.90 1006.36 1006.67 1006.87 1007.13 1007.22 1007.37 1008.00 1008.76 1009.44 1009.98 1010.58 1011.25 1012.01 1012.52 1013.02 1013.28 1013.81 1014.31 1014.45 1014.71 1014.75 1015.12 1015.62 1016.27 1017.07 1017.40 1017.40 1017.58 1017.80 1017.79 1017.55 1017.57 1017.34 1017.11 1016.81 1016.48
1005.19 1006.36 1007.14 1006.68 1006.36 1005.66 1005.86 1006.37 1006.67 1006.80 1007.20 1007.22 1007.13 1007.65 1008.39 1008.90 1009.55 1010.23 1010.76 1011.29 1011.94 1012.54 1012.71 1013.12 1014.07 1014.42 1014.52 1014.69 1014.51 1015.14 1015.62 1016.01 1016.47 1017.01 1017.41 1017.56 1017.89 1017.96 1017.85 1017.78 1017.51 1017.25 1017.03 1016.80
1005.35 1005.62 1005.97 1006.24 1006.30 1006.33 1006.48 1006.78 1006.88 1007.17 1007.37 1007.29 1007.52 1007.90 1008.61 1009.22 1009.63 1010.15 1010.52 1011.09 1011.64 1012.48 1012.86 1013.71 1014.14 1014.41 1014.53 1014.07 1014.23 1014.76 1015.25 1015.61 1016.00 1016.54 1016.98 1017.54 1018.07 1018.21 1018.15 1017.96 1017.86 1017.67 1017.50 1017.08
1005.95 1006.07 1006.06 1006.48 1006.65 1006.92 1006.94 1007.13 1007.17 1007.30 1007.49 1007.40 1007.84 1008.20 1008.72 1009.26 1009.70 1010.36 1010.59 1011.13 1011.93 1012.41 1013.00 1013.76 1014.06 1014.32 1014.21 1013.69 1013.92 1014.18 1015.09 1015.53 1016.05 1016.64 1017.08 1017.32 1017.79 1018.13 1018.31 1018.16 1017.98 1017.98 1017.80 1017.34
1006.92 1006.98 1007.18 1007.13 1007.23 1007.31 1007.02 1007.09 1007.56 1007.65 1007.73 1007.72 1008.20 1008.74 1008.88 1009.20 1009.83 1010.12 1010.60 1011.41 1011.88 1012.23 1012.55 1013.47 1013.72 1013.91 1013.48 1013.06 1013.13 1013.85 1014.50 1015.60 1015.85 1016.56 1016.88 1017.31 1017.69 1017.93 1018.34 1018.13 1018.21 1018.15 1018.04 1017.69
1007.77 1007.86 1007.76 1007.81 1008.09 1008.03 1007.96 1008.22 1008.27 1008.70 1008.61 1008.42 1008.68 1009.15 1009.69 1009.88 1010.25 1010.51 1010.67 1011.06 1011.50 1011.80 1012.18 1012.29 1012.58 1012.93 1012.69 1012.59 1012.65 1013.51 1013.96 1014.61 1015.12 1015.85 1016.56 1017.06 1017.37 1017.66 1018.01 1018.00 1018.16 1018.29 1018.26 1018.12
Wind_Speed
20 23 22 17 18 22 20 20 20 15 18 18 16 16 14 14 10 10 10 10 10 8 8 8 7 7 5 9 9 10 9 9 9 9 8 7 7 6 7 8 8 8 8 7
23 22 22 22 20 16 18 19 21 20 20 13 13 16 15 14 12 11 11 14 12 10 6 7 6 6 7 7 7 8 7 7 6 6 2 2 1 6 6 7 8 9 10 10
20 21 21 25 22 20 20 15 17 17 16 14 9 16 18 16 14 13 12 15 13 10 8 7 9 7 7 7 6 4 3 2 3 3 4 4 5 5 7 5 7 11 10 10
16 18 31 16 20 23 23 21 18 17 13 10 0 5 16 18 14 13 14 19 14 10 8 9 7 6 6 7 4 5 4 3 3 3 3 4 5 5 6 5 8 9 11 8
13 18 19 20 22 22 20 18 19 18 15 12 10 5 7 16 11 9 8 15 13 10 10 8 8 6 8 6 6 6 4 3 3 5 5 7 8 8 6 6 9 10 8 9
14 20 25 15 20 21 18 16 15 15 15 14 13 11 6 18 16 13 16 15 11 14 11 9 8 7 6 5 5 3 5 2 4 4 4 5 6 6 4 4 6 8 11 7
16 19 22 19 22 19 12 9 13 12 10 14 10 5 3 17 14 16 15 16 13 11 7 5 6 7 6 5 5 4 3 3 2 4 4 5 6 6 6 7 7 8 7 8
17 19 25 19 21 15 2 16 16 8 11 11 15 17 15 17 17 17 16 17 14 9 8 8 7 6 6 5 4 4 2 3 3 3 2 3 7 6 7 6 4 7 9 7
9 9 15 14 12 9 6 6 13 9 6 8 19 21 18 16 16 15 17 13 12 11 9 8 7 6 6 3 2 2 3 3 3 3 3 5 6 8 8 9 9 7 7 7
4 13 23 16 8 12 18 7 6 13 2 5 15 17 21 19 17 15 15 14 14 11 12 8 7 6 5 3 2 2 3 3 3 3 2 4 3 5 6 8 8 9 7 6
8 13 18 18 12 7 17 27 7 4 16 9 12 15 17 13 20 14 13 10 13 13 9 9 6 5 5 4 4 3 2 3 3 2 3 5 6 4 4 5 4 6 7 7
8 8 6 10 14 19 8 21 25 7 10 9 19 20 21 17 15 16 15 12 10 14 11 9 7 6 4 3 3 5 5 4 1 5 3 3 2 3 3 1 1 4 4 2
5 6 7 11 12 14 14 16 17 20 8 16 16 20 20 15 13 13 13 7 10 14 10 10 8 6 4 2 2 2 5 3 4 6 5 4 5 5 5 6 4 6 6 7
1 5 9 8 6 9 8 14 17 21 20 20 21 18 18 16 13 11 8 9 9 9 10 10 7 6 3 2 2 2 4 2 6 6 6 6 6 6 4 6 7 8 4 6
9 11 14 14 12 16 3 7 23 21 17 18 15 19 19 18 16 11 10 9 4 5 3 11 7 3 1 1 3 1 4 6 4 4 6 6 5 6 6 7 8 8 6 5
13 13 16 19 19 13 14 17 18 16 15 16 15 15 15 14 14 15 12 12 8 6 5 9 6 2 2 3 6 4 5 5 3 4 4 7 7 7 8 7 6 7 7 5
10 15 13 15 11 15 5 21 27 14 17 17 15 17 16 15 15 13 13 14 10 11 9 8 7 2 4 6 6 5 4 5 8 7 7 7 8 8 8 6 6 5 6 3
12 15 15 14 5 5 4 7 14 16 14 11 12 11 15 15 13 13 12 13 12 9 8 8 8 4 6 6 6 5 7 7 7 8 8 9 8 6 5 6 6 7 7 6
11 6 10 12 8 10 7 8 7 16 15 16 13 14 14 13 12 11 11 10 11 11 7 7 4 4 6 4 6 7 7 8 9 8 9 10 9 8 7 7 6 7 7 6
6 4 4 6 8 10 12 5 8 10 10 11 10 12 12 13 12 11 10 10 10 9 10 9 6 7 4 3 4 8 8 11 9 8 8 8 8 8 7 7 6 5 5 5
2 7 7 10 7 8 8 8 10 9 10 9 11 11 14 12 10 11 11 8 12 12 11 9 8 6 3 4 7 9 10 9 8 8 7 6 6 6 6 6 5 5 5 4
15 16 13 9 5 4 13 11 9 9 9 10 11 12 13 11 8 7 10 12 8 11 8 7 7 5 5 3 8 8 9 9 7 6 7 7 6 5 5 5 5 4 4 4
17 19 8 8 4 7 11 12 11 11 10 9 9 13 11 10 8 7 8 10 8 8 5 9 11 8 4 4 8 8 7 7 7 6 7 7 6 5 4 4 5 5 4 5
5 9 14 10 10 9 11 9 10 7 6 6 8 7 10 8 5 4 6 9 15 10 6 10 9 7 5 5 6 7 7 7 8 7 6 4 5 4 5 4 4 4 4 4
5 5 8 8 7 6 6 7 7 7 6 6 9 7 10 7 7 7 6 8 14 11 10 10 12 9 5 6 8 7 8 7 7 6 6 5 4 4 4 4 4 4 4 5
7 5 6 4 4 3 5 5 4 4 6 7 5 5 5 6 6 6 9 10 9 7 10 9 8 7 7 8 7 8 9 9 7 6 5 5 5 5 3 4 4 4 5 6
8 7 5 7 6 6 5 4 7 5 4 6 7 5 7 4 5 5 8 10 10 10 8 9 9 8 8 3 5 12 9 8 8 8 7 4 4 4 4 4 4 4 4 5
Wind_Direction
257 265 272 274 218 208 226 250 258 251 240 164 181 177 159 135 152 150 145 143 97 88 85 86 85 59 77 65 49 35 65 68 65 66 50 37 33 350 321 309 294 307 333 304
259 262 258 265 263 260 224 218 243 251 265 280 171 149 149 147 153 166 155 111 110 106 101 114 128 126 109 82 67 63 63 66 34 43 2 96 41 133 274 312 316 318 317 310
249 250 263 257 253 256 254 238 225 234 239 260 250 156 151 150 166 172 161 131 127 124 112 107 98 103 110 108 101 90 80 358 327 307 321 291 266 252 266 299 301 289 274 273
251 247 242 258 250 250 252 251 243 247 256 241 176 144 153 151 167 174 161 137 139 142 143 135 129 125 116 118 122 93 68 36 1 335 304 312 329 325 307 328 295 285 286 282
252 244 260 251 242 255 260 257 250 235 245 206 179 185 150 135 150 172 141 129 143 139 154 140 140 155 135 168 111 99 88 43 17 20 7 358 341 328 315 310 301 290 279 290
262 255 252 254 250 267 273 259 256 224 231 212 180 193 188 140 157 149 116 114 119 126 127 124 134 157 153 122 97 90 99 65 21 19 13 342 339 325 322 307 298 298 292 269
245 255 259 262 278 288 298 308 291 231 253 214 169 164 123 140 129 119 130 136 123 140 129 124 124 115 115 114 95 69 54 74 74 57 333 15 341 330 322 312 325 339 319 316
236 255 248 246 257 266 86 351 327 264 251 219 126 109 110 112 122 128 137 123 127 106 104 97 109 103 96 79 37 25 17 30 27 1 39 27 347 326 321 321 20 7 7 344
243 250 321 318 353 314 113 327 324 327 337 150 126 128 130 134 143 144 139 124 116 120 122 118 90 94 104 78 34 8 25 14 352 352 20 71 357 343 344 357 5 9 20 358
283 239 261 307 354 321 303 196 316 318 287 148 131 146 148 151 149 148 140 134 135 135 126 120 120 112 95 61 355 24 38 19 335 299 334 70 47 7 357 10 2 348 352 13
268 275 281 279 284 248 351 325 222 241 309 212 165 169 145 139 135 151 136 115 120 114 120 128 117 106 97 63 5 7 348 316 345 56 28 345 48 10 10 46 17 342 343 346
226 298 278 293 348 334 332 293 314 252 253 317 104 108 101 140 140 129 124 126 138 126 151 130 134 109 86 57 20 331 307 29 20 316 28 57 351 24 129 167 217 247 291 271
119 180 303 319 338 309 321 317 320 296 147 110 108 113 127 124 99 95 102 106 140 131 137 129 120 122 90 38 324 346 314 12 332 358 2 352 26 3 2 9 234 273 280 288
203 286 282 254 284 308 331 328 333 280 142 123 117 116 113 107 106 99 82 72 102 119 135 127 133 108 130 191 265 275 310 113 25 358 345 353 5 317 50 4 344 342 330 262
254 264 262 266 235 248 192 35 351 232 101 110 137 137 129 129 125 120 105 92 78 77 120 106 102 118 87 315 299 348 31 50 10 353 344 318 311 4 16 34 347 334 336 356
215 256 263 258 258 231 190 158 206 230 136 147 148 150 143 139 135 135 135 159 151 144 111 100 110 124 94 353 323 27 72 111 296 354 356 357 356 8 21 10 342 336 335 358
277 270 270 285 296 291 125 191 207 157 165 153 161 156 153 150 152 155 159 161 160 148 132 134 114 104 75 9 351 26 17 21 12 4 15 10 23 355 341 344 331 331 332 30
285 282 277 286 60 15 353 88 189 161 146 143 149 146 152 166 162 163 147 128 116 120 121 118 121 116 62 14 341 353 35 19 23 17 17 13 357 339 348 337 343 339 333 342
271 348 5 324 80 102 66 358 139 103 128 135 149 155 155 141 143 137 128 125 126 115 101 105 111 102 61 6 332 55 39 33 32 26 24 360 359 358 352 350 341 337 342 342
339 9 21 89 87 118 116 254 102 105 122 136 140 141 139 127 131 130 129 145 145 134 143 150 164 114 132 352 22 64 55 48 34 33 28 9 4 352 347 345 350 344 341 347
254 357 309 140 134 161 173 176 133 142 149 156 144 135 130 132 137 122 116 112 123 152 148 155 163 139 94 37 70 70 64 61 46 34 20 8 3 360 358 356 345 346 343 349
99 79 58 100 95 158 135 137 134 143 154 158 157 129 128 131 135 160 158 141 134 137 155 166 104 71 121 317 80 67 71 79 60 41 30 18 11 356 1 348 340 343 347 352
107 104 147 109 222 113 115 135 149 151 163 163 149 138 149 150 156 132 135 135 150 185 207 120 134 156 200 256 116 95 78 70 74 53 46 30 14 354 347 340 349 3 358 351
108 123 144 148 134 125 132 143 140 137 157 148 132 143 144 154 150 139 110 152 139 132 123 133 156 181 219 263 123 107 91 68 71 65 67 69 23 8 359 3 10 353 341 346
108 121 120 125 120 110 123 145 152 146 166 169 145 154 128 146 137 143 142 121 130 147 151 165 172 195 221 246 153 125 109 88 73 74 55 45 69 51 28 20 18 5 351 346
58 69 67 77 97 83 123 124 69 151 181 153 121 111 97 106 129 149 131 143 163 208 138 160 188 205 234 246 142 142 137 143 132 94 80 69 63 58 57 71 37 31 9 360
52 11 85 86 67 39 36 43 68 44 354 127 134 137 145 131 160 155 157 165 162 190 172 182 185 204 235 235 218 149 161 162 156 145 127 105 100 77 74 78 99 46 36 23